Home > Time Zones > World Clock > Weather > Italy > Monza > Past weeks

Flag for Italy Weather past 2 weeks in Monza, Italy

Now
52 °F

Partly sunny.


Feels Like: 49 °F
Forecast: 38 / 65 °F
Wind: 8 mph from East

Location: Milan / Linate

Current Time: Apr 19, 2015 at 10:00:12 AM

Latest Report: Apr 19, 2015 at 9:20 AM


Visibility: N/A

Pressure: 30.18 "Hg

Humidity: 54%

Dew point: 36 °F

Location of MonzaLocation

Historic Weather in Monza — Graph

°F

Monza temperature yesterday

Maximum temperature yesterday: 70 °F (at 2:20 PM)
Minimum temperature yesterday: 48 °F (at 9:20 PM)
Average temperature yesterday: 57 °F

Past Weeks' High & Low Weather Summary

 TemperatureHumidityPressure
High79 °F (Apr 13, 3:50 PM)100% (Apr 5, 8:20 AM)30.45 "Hg (Apr 5, 8:20 AM)
Low37 °F (Apr 6, 6:50 AM)16% (Apr 8, 3:50 PM)29.77 "Hg (Apr 4, 4:20 PM)
Average57 °F57%30.17 "Hg
* Reported Apr 4 8:20 AM — Apr 19 8:50 AM, Monza, Weather by CustomWeather, © 2015

Note: Actual official high and low records may vary slightly from our data, if they occured in-between our weather recording intervals... More about our weather records

Advertising

Monza weather history for previous 24 hours

 ConditionsComfort  
Time TempWeatherWind HumidityBarometerVisibility
8:50 AM
Sun, Apr 19
50 °FPartly sunny.7 mph58%30.18 "HgN/A
8:20 AM50 °FScattered clouds.3 mph62%30.18 "HgN/A
7:50 AM50 °FScattered clouds.6 mph67%30.15 "HgN/A
7:20 AM48 °FPassing clouds.5 mph76%30.15 "HgN/A
6:50 AM48 °FPassing clouds.3 mph82%30.18 "HgN/A
6:20 AM48 °FPassing clouds.7 mph76%30.15 "HgN/A
5:50 AM48 °FPassing clouds.6 mph82%30.18 "HgN/A
5:20 AM48 °FPassing clouds.7 mph82%30.15 "HgN/A
4:50 AM48 °FPassing clouds.6 mph82%30.18 "HgN/A
4:20 AM48 °FPassing clouds.5 mph87%30.18 "HgN/A
3:50 AM48 °FPassing clouds.6 mph87%30.18 "HgN/A
3:20 AM48 °FPassing clouds.5 mph87%30.18 "HgN/A
2:50 AM46 °FPassing clouds.8 mph93%30.18 "HgN/A
2:20 AM48 °FPartly cloudy.13 mph87%30.15 "HgN/A
1:50 AM48 °FPassing clouds.14 mph87%30.18 "HgN/A
1:20 AM48 °FPassing clouds.14 mph87%30.15 "HgN/A
12:50 AM48 °FPassing clouds.15 mph87%30.15 "HgN/A
12:20 AM48 °FPassing clouds.16 mph87%30.15 "HgN/A
11:50 PM
Sat, Apr 18
48 °FPassing clouds.17 mph87%30.15 "HgN/A
11:20 PM48 °FPassing clouds.20 mph94%30.12 "HgN/A
10:50 PM48 °FPassing clouds.17 mph94%30.12 "HgN/A
10:20 PM48 °FPassing clouds.17 mph94%30.09 "HgN/A
9:50 PM48 °FPassing clouds.20 mph94%30.09 "HgN/A
9:20 PM48 °FPassing clouds.18 mph100%30.07 "HgN/A
8:50 PM50 °FPartly sunny.16 mph94%30.04 "HgN/A
8:20 PM50 °FLight rain. Broken clouds.14 mph94%30.01 "HgN/A
7:50 PM52 °FThunderstorms. Broken clouds.21 mph94%29.98 "Hg4 mi
7:20 PM52 °FThunderstorms. Broken clouds.20 mph94%29.95 "Hg5 mi
6:50 PM57 °FPartly sunny.24 mph77%29.89 "HgN/A
6:20 PM68 °FScattered clouds.8 mph64%29.89 "HgN/A
5:50 PM68 °FPartly sunny.7 mph64%29.86 "HgN/A
5:20 PM68 °FPartly sunny.6 mph60%29.86 "HgN/A
4:50 PM70 °FPartly sunny.3 mph60%29.86 "HgN/A
4:20 PM70 °FPartly sunny.2 mph53%29.86 "HgN/A
3:50 PM68 °FPartly sunny.2 mph60%29.86 "HgN/A
3:20 PM70 °FPartly sunny.5 mph57%29.86 "HgN/A
2:50 PM68 °FScattered clouds.6 mph64%29.86 "HgN/A
2:20 PM70 °FScattered clouds.3 mph60%29.89 "HgN/A
1:50 PM66 °FScattered clouds.3 mph64%29.89 "HgN/A
1:20 PM68 °FScattered clouds.7 mph64%29.89 "HgN/A
12:50 PM68 °FScattered clouds.6 mph64%29.89 "HgN/A
12:20 PM64 °FScattered clouds.2 mph78%29.89 "Hg5 mi
11:50 AM63 °FScattered clouds.5 mph77%29.92 "Hg5 mi
11:20 AM63 °FScattered clouds.3 mph77%29.92 "Hg5 mi
10:50 AM63 °FPassing clouds.2 mph77%29.92 "Hg5 mi
10:20 AM61 °FClear.3 mph83%29.92 "Hg5 mi
Weather by CustomWeather, © 2015

See weather overviewHow to use our weather pages